This demonstration page uses our WeatherBlox Daily Observations layout. Learn more.

Left ArrowRight Arrow

39.51506, -84.39828

Hourly Observations for September 23, 2016

Temp ( °F °C ) Dew Point ( °F °C ) Humidity (%) Winds ( mph kmh ) Pressure ( in mb ) Visibility ( mi km ) Precip ( " mm )
12:15 am 00:15 Clear 69 20.8 63 17.3 80 80 N N/A 30.03 1017 10 16 N/A
12:55 am 00:55 Clear 69 20.8 64 17.5 82 82 N N/A 30.03 1017 10 16 N/A
1:10 am 01:10 Clear 69 20.8 63 17.3 80 80 N N/A 30.03 1017 10 16 N/A
1:35 am 01:35 Clear 69 20.8 63 17.4 81 81 N N/A 30.03 1017 10 16 N/A
1:55 am 01:55 Clear 69 20.8 63 17.4 81 81 N N/A 30.03 1017 10 16 N/A
2:15 am 02:15 Clear 69 20.8 63 17.3 80 80 N N/A 30.03 1017 10 16 N/A
2:35 am 02:35 Clear 67 19.5 61 16.3 82 82 N N/A 30.06 1018 10 16 N/A
2:55 am 02:55 Clear 69 20.8 64 17.7 83 83 N N/A 30.06 1018 10 16 N/A
3:15 am 03:15 Clear 69 20.8 64 17.8 83 83 N N/A 30.03 1017 10 16 N/A
3:35 am 03:35 Clear 69 20.8 64 17.7 83 83 N N/A 30.03 1017 10 16 N/A
3:55 am 03:55 Clear 69 20.8 64 17.6 82 82 N N/A 30.03 1017 10 16 N/A
4:15 am 04:15 Clear 69 20.7 64 17.6 83 83 N N/A 30.03 1017 10 16 N/A
4:35 am 04:35 Clear 67 19.5 62 16.4 82 82 N N/A 30.03 1017 10 16 N/A
4:55 am 04:55 Clear 66 18.8 61 16 84 84 N N/A 30.03 1017 7 11 N/A
5:15 am 05:15 Clear with Mist and Fog 64 18 60 15.5 85 85 N N/A 30.03 1017 4 6 N/A
5:35 am 05:35 Clear with Mist and Fog 64 18 60 15.5 85 85 N N/A 30.06 1018 5 8 N/A
5:55 am 05:55 Clear with Mist and Fog 64 18 60 15.5 85 85 N N/A 30.06 1018 4 6 N/A
6:15 am 06:15 Hazy 63 17.2 58 14.6 85 85 N N/A 30.06 1018 5 8 N/A
6:35 am 06:35 Clear 63 17.3 58 14.7 85 85 N N/A 30.06 1018 7 11 N/A
6:55 am 06:55 Hazy 63 17 58 14.4 85 85 N N/A 30.06 1018 5 8 N/A
7:15 am 07:15 Clear 63 17.2 58 14.6 85 85 N N/A 30.06 1018 7 11 N/A
7:35 am 07:35 Sunny with Mist and Fog 64 17.9 60 15.4 85 85 N N/A 30.06 1018 5 8 N/A
7:55 am 07:55 Sunny with Mist and Fog 64 18 60 15.5 85 85 N N/A 30.06 1018 5 8 N/A
8:15 am 08:15 Sunny with Mist and Fog 64 18 60 15.5 85 85 N N/A 30.06 1018 4 6 N/A
8:35 am 08:35 Hazy 67 19.5 62 16.8 84 84 N N/A 30.06 1018 4 6 N/A
8:55 am 08:55 Sunny 69 20.8 64 18 84 84 N N/A 30.06 1018 7 11 N/A
9:15 am 09:15 Sunny 69 20.8 63 17.3 80 80 N N/A 30.06 1018 10 16 N/A
9:35 am 09:35 Sunny 74 23.6 67 19.3 77 77 N N/A 30.06 1018 10 16 N/A
9:55 am 09:55 Sunny 74 23.6 64 18 71 71 N N/A 30.09 1019 10 16 N/A
10:15 am 10:15 Sunny 76 24.2 66 18.8 72 72 N N/A 30.09 1019 10 16 N/A
10:35 am 10:35 Sunny 77 25.1 65 18.5 67 67 N N/A 30.09 1019 10 16 N/A
10:55 am 10:55 Sunny 80 26.5 67 19.2 64 64 N N/A 30.09 1019 10 16 N/A
11:15 am 11:15 Sunny 80 26.5 65 18.4 61 61 SSW 3 6 30.09 1019 10 16 N/A
11:35 am 11:35 Sunny 82 27.9 66 18.7 57 57 SW 3 6 30.09 1019 10 16 N/A
11:55 am 11:55 Sunny 82 28 64 17.7 54 54 N N/A 30.09 1019 10 16 N/A
12:15 pm 12:15 Sunny 84 29 63 17.1 49 49 SSW 3 6 30.03 1017 10 16 N/A
12:35 pm 12:35 Sunny 85 29.4 63 17 47 47 N N/A 30.03 1017 10 16 N/A
12:55 pm 12:55 Sunny 88 31 64 17.7 45 45 N N/A 30.03 1017 10 16 N/A
1:15 pm 13:15 Sunny 90 32.1 62 16.8 40 40 N N/A 30.03 1017 10 16 N/A
1:35 pm 13:35 Sunny 90 32.1 60 15.5 37 37 SSE 3 6 30.03 1017 10 16 N/A
1:55 pm 13:55 Sunny 90 32.1 61 16.2 38 38 SSW 5 7 30.03 1017 10 16 N/A
2:15 pm 14:15 Sunny 90 32.1 58 14.2 34 34 N N/A 30.03 1017 10 16 N/A
2:35 pm 14:35 Sunny 90 32.1 59 15.1 36 36 NW 7 11 30.00 1016 10 16 N/A
2:55 pm 14:55 Partly Cloudy 90 32.1 59 15.1 36 36 SW 3 6 30.00 1016 10 16 N/A
3:15 pm 15:15 Partly Cloudy 90 32.1 56 13.3 32 32 WSW 3 6 30.00 1016 10 16 N/A
3:35 pm 15:35 Sunny 90 32.1 56 13.4 32 32 N N/A 30.00 1016 10 16 N/A
3:55 pm 15:55 Sunny 90 32.1 59 14.8 35 35 SSW 5 7 30.00 1016 10 16 N/A
4:15 pm 16:15 Sunny 90 32.1 55 12.5 30 30 SSW 6 9 30.00 1016 10 16 N/A
4:35 pm 16:35 Sunny 90 32.1 55 12.5 30 30 SW 3 6 29.97 1015 10 16 N/A
4:55 pm 16:55 Sunny 90 32.1 58 14.2 34 34 SSW 7 11 29.97 1015 10 16 N/A
5:15 pm 17:15 Sunny 90 32.1 57 13.9 33 33 SW 6 9 29.97 1015 10 16 N/A
5:35 pm 17:35 Sunny 90 32.1 57 13.9 33 33 SSW 6 9 29.97 1015 10 16 N/A
5:55 pm 17:55 Sunny 90 32.1 57 13.8 33 33 SSW 5 7 29.97 1015 10 16 N/A
6:15 pm 18:15 Sunny 90 32.1 60 15.8 37 37 SW 6 9 29.97 1015 10 16 N/A
6:35 pm 18:35 Sunny 85 29.3 60 15.5 43 43 SSW 5 7 29.97 1015 10 16 N/A
6:55 pm 18:55 Sunny 83 28.1 61 16 48 48 SW 3 6 30.00 1016 10 16 N/A
7:15 pm 19:15 Sunny 80 26.5 66 18.8 63 63 N N/A 30.00 1016 10 16 N/A
7:35 pm 19:35 Clear 79 26 66 18.8 65 65 N N/A 30.03 1017 10 16 N/A
7:55 pm 19:55 Clear 76 24.7 65 18.6 69 69 N N/A 30.03 1017 10 16 N/A
8:15 pm 20:15 Clear 74 23.6 65 18.2 72 72 N N/A 30.03 1017 10 16 N/A
8:35 pm 20:35 Clear 74 23.6 66 18.7 74 74 N N/A 30.03 1017 10 16 N/A
8:55 pm 20:55 Clear 74 23.6 66 18.8 75 75 N N/A 30.03 1017 10 16 N/A
9:15 pm 21:15 Clear 74 23.6 66 18.9 75 75 N N/A 30.03 1017 10 16 N/A
9:35 pm 21:35 Clear 74 23.6 67 19.2 76 76 N N/A 30.03 1017 10 16 N/A
9:55 pm 21:55 Partly Cloudy 74 23.6 67 19.2 76 76 N N/A 30.03 1017 10 16 N/A
10:15 pm 22:15 Partly Cloudy 72 22.3 65 18.3 78 78 N N/A 30.03 1017 10 16 N/A
10:35 pm 22:35 Mostly Cloudy 72 22.3 65 18.5 79 79 N N/A 30.03 1017 10 16 N/A
10:55 pm 22:55 Partly Cloudy 74 23.6 63 17.4 68 68 N N/A 30.03 1017 10 16 N/A
11:15 pm 23:15 Clear 74 23.6 66 18.7 74 74 E 3 6 30.06 1018 10 16 N/A
11:35 pm 23:35 Clear 73 22.7 65 18.3 76 76 N N/A 30.06 1018 10 16 N/A
11:55 pm 23:55 Clear 69 20.8 63 17.1 79 79 N N/A 30.06 1018 10 16 N/A

Powered by AerisWeather